Location: College Park
(38.9810°N, 76.9370°W)
Time: 03:54:50
(UTC-04:00)

Vanguard 1 Rocket - Visible Passes

Search period start: 23 April 2018 00:00
Search period end: 03 May 2018 00:00
Orbit: 654 x 4223 km, 34.3° (Epoch: 22 April)

Date Brightness Start Highest point End Pass type
(mag) Time Alt. Az. Time Alt. Az. Time Alt. Az.
23 Apr 11.5 04:00:13 10° S 04:14:29 19° SE 04:25:57 10° ESE visible
24 Apr 11.8 02:58:37 10° SE 03:00:57 10° SE 03:03:14 10° SE visible
24 Apr 11.1 05:10:22 10° SSW 05:30:45 34° SSE 05:44:28 10° E visible
25 Apr 11.4 03:59:07 10° S 04:17:09 25° SE 04:31:05 10° E visible
26 Apr 11.6 02:51:02 10° SSE 03:03:34 16° SE 03:14:41 10° ESE visible
26 Apr 10.9 05:11:09 10° SSW 05:33:27 42° SSE 05:48:11 10° E visible
27 Apr 11.2 04:00:43 12° SSW 04:19:41 32° SE 04:35:22 10° E visible
28 Apr 11.5 02:53:33 15° SSE 03:06:00 22° SE 03:20:35 10° E visible
28 Apr 10.8 05:12:23 10° SW 05:36:06 49° SSE 05:51:40 10° E visible
29 Apr 11.6 01:46:19 11° SE 01:52:34 12° SE 02:00:29 10° ESE visible
29 Apr 11.0 04:03:35 16° SSW 04:22:09 39° SE 04:39:09 10° E visible
30 Apr 11.3 02:56:16 20° S 03:08:18 28° SE 03:25:12 10° E visible
30 Apr 10.7 05:13:58 10° SW 05:38:44 56° SSE 05:54:59 10° E visible
01 May 11.4 01:48:53 16° SE 01:54:48 18° SE 02:08:22 10° E visible
01 May 10.9 04:06:08 20° SSW 04:24:33 46° SSE 04:42:39 10° E visible
02 May 11.1 02:58:40 25° S 03:10:30 35° SE 03:29:10 10° E visible
02 May 10.6 05:15:55 10° SW 05:41:20 63° SSE 05:58:14 10° E visible
